Hourly Data Report for October 10, 2014

All times are specified in Local Standard Time (LST). Add 1 hour to adjust for Daylight Saving Time where and when it is observed.

KUGAARUK CLIMATE
NUNAVUT

68°32'15.060" N
89°47'47.020" W
15.80 m
2303094
71407
NBB

Download Data

Hourly Data (October 2014)
Hourly Data Report for October 10, 2014
Temp Definition
°C
Dew Point Temp Definition
°C
Rel Hum Definition
%
Wind Dir Definition
10's deg

Wind Spd Definition
km/h
Visibility Definition
km
Stn Press Definition
kPa
Hmdx Definition


Wind Chill Definition


Weather Definition


TIME
00:00 -7.0 -8.1 92 1 14   101.68   -13 LegendNANA
01:00 -7.2 -8.3 92 2 15   101.65   -13 LegendNANA
02:00 -6.9 -7.7 94 35 10   101.60   -12 LegendNANA
03:00 -7.1 -8.0 93 36 12   101.55   -12 LegendNANA
04:00 -7.7 -8.6 93 3 16   101.47   -14 LegendNANA
05:00 -8.4 -9.3 93 5 17   101.42   -15 LegendNANA
06:00 -8.2 -9.1 93 4 14   101.36   -14 LegendNANA
07:00 -8.2 -9.1 93 5 11   101.25   -13 LegendNANA
08:00 -7.8 -8.7 93 3 9   101.19   -12 LegendNANA
09:00 -7.4 -8.3 93 1 8   101.12   -11 LegendNANA
10:00 -7.2 -8.1 93 1 9   101.02   -12 LegendNANA
11:00 -7.1 -8.1 92 35 9   100.97   -11 LegendNANA
12:00 -7.2 -8.3 91 33 9   100.91   -12 LegendNANA
13:00 -6.8 -8.1 90 36 7   100.84   -10 LegendNANA
14:00 -6.9 -8.5 88 35 15   100.78   -13 LegendNANA
15:00 -7.0 -8.5 89 35 12   100.72   -12 LegendNANA
16:00 -7.1 -8.7 89 33 8   100.68   -11 LegendNANA
17:00 -7.1 -8.5 90 34 10   100.61   -12 LegendNANA
18:00 -7.3 -8.8 89 35 12   100.54   -13 LegendNANA
19:00 -7.2 -8.7 89 36 13   100.47   -13 LegendNANA
20:00 -6.9 -8.1 91 35 10   100.42   -12 LegendNANA
21:00 -7.4 -8.5 92 36 17   100.35   -14 LegendNANA
22:00 -7.5 -8.7 91 1 18   100.30   -14 LegendNANA
23:00 -7.3 -8.5 91 35 18   100.24   -14 LegendNANA

Notes on Data Quality.

Legend

  • E = Estimated
  • M = Missing
  • NA = Not Available
  • ‡ = Partner data that is not subject to review by the National Climate Archives
Date modified: